Location: Asheville, NC
(35.6000°N, 82.5500°W)
Time: 16:41:46
(UTC-05:00)

AO-7 - Visible Passes

Search period start: 19 January 2018 00:00
Search period end: 29 January 2018 00:00
Orbit: 1440 x 1458 km, 101.7° (Epoch: 19 January)

Date Brightness Start Highest point End Pass type
(mag) Time Alt. Az. Time Alt. Az. Time Alt. Az.
19 Jan ? 03:32:30 10° NNE 03:36:33 30° NE 03:36:33 30° NE visible
19 Jan ? 05:25:38 10° N 05:31:28 33° NW 05:31:28 33° NW visible
20 Jan ? 02:34:44 10° NE 02:35:36 12° ENE 02:35:36 12° ENE visible
20 Jan ? 04:25:07 10° NNE 04:30:31 46° N 04:30:31 46° N visible
20 Jan ? 06:20:17 10° NNW 06:24:59 17° NW 06:25:27 16° WNW visible
21 Jan ? 03:25:38 10° NNE 03:29:35 28° NE 03:29:35 28° NE visible
21 Jan ? 05:18:32 10° N 05:24:30 36° NW 05:24:30 36° NW visible
22 Jan ? 02:28:19 10° ENE 02:28:39 11° ENE 02:28:39 11° ENE visible
22 Jan ? 04:18:08 10° NNE 04:23:34 46° NNE 04:23:34 46° NNE visible
22 Jan ? 06:12:58 10° NNW 06:18:09 18° NW 06:18:30 18° WNW visible
23 Jan ? 03:18:48 10° NNE 03:22:38 26° NE 03:22:38 26° NE visible
23 Jan ? 05:11:27 10° N 05:17:34 39° NW 05:17:34 39° NW visible
24 Jan ? 04:11:10 10° NNE 04:16:38 46° NNE 04:16:38 46° NNE visible
24 Jan ? 06:05:41 10° NNW 06:11:18 20° NW 06:11:33 20° WNW visible
25 Jan ? 03:12:00 10° NE 03:15:43 25° NE 03:15:43 25° NE visible
25 Jan ? 05:04:23 10° N 05:10:38 43° NW 05:10:38 43° NW visible
26 Jan ? 04:04:12 10° NNE 04:09:42 46° NNE 04:09:42 46° NNE visible
26 Jan ? 05:58:27 10° N 06:04:28 23° WNW 06:04:38 23° WNW visible
27 Jan ? 03:05:13 10° NE 03:08:47 23° ENE 03:08:47 23° ENE visible
27 Jan ? 04:57:19 10° N 05:03:43 47° NNW 05:03:43 47° NNW visible
28 Jan ? 03:57:16 10° NNE 04:02:48 45° NE 04:02:48 45° NE visible
28 Jan ? 05:51:16 10° N 05:57:36 25° WNW 05:57:43 25° WNW visible
